CAT,Max TemperatureF,Mean TemperatureF,Min TemperatureF,Max Dew PointF,MeanDew PointF,Min DewpointF,Max Humidity, Mean Humidity, Min Humidity, Max Sea Level PressureIn, Mean Sea Level PressureIn, Min Sea Level PressureIn, Max VisibilityMiles, Mean VisibilityMiles, Min VisibilityMiles, Max Wind SpeedMPH, Mean Wind SpeedMPH, Max Gust SpeedMPH,PrecipitationIn, CloudCover, Events, WindDirDegrees
2013-1-1,83,72,61,67,65,63,100,76,45,30.12,30.07,29.98,19,9,6,14,7,,0.00,4,,7
2013-1-2,75,70,64,67,65,63,100,87,65,30.12,30.06,29.98,19,8,1,12,6,,0.00,6,Rain-Thunderstorm,59
2013-1-3,78,70,62,68,65,62,100,84,55,30.09,30.05,29.98,19,8,3,12,6,,0.00,6,,28
2013-1-4,77,72,66,68,67,64,100,92,74,30.09,30.04,29.98,19,7,2,13,6,,0.00,6,Rain-Thunderstorm,332
2013-1-5,69,66,62,67,65,63,100,96,88,30.12,30.07,30.04,19,8,2,7,5,,0.00,6,Rain-Thunderstorm,127
2013-1-6,78,70,62,66,64,61,100,87,61,30.18,30.11,30.04,19,8,0,17,7,,0.00,5,Rain-Thunderstorm,71
2013-1-7,80,70,61,66,63,57,100,77,56,30.18,30.12,30.06,19,9,6,14,6,,0.00,5,,103
2013-1-8,78,68,58,66,61,58,100,76,57,30.18,30.14,30.06,19,7,6,9,5,,0.00,4,Rain-Thunderstorm,139
2013-1-9,82,70,59,64,62,57,100,74,49,30.15,30.09,30.01,19,9,6,10,5,,0.00,4,Rain,148
2013-1-10,80,72,64,66,64,64,100,84,48,30.09,30.03,29.95,19,8,6,16,7,,0.00,6,Rain-Thunderstorm,297
2013-1-11,81,72,63,66,64,61,99,83,48,30.04,29.99,29.95,19,7,1,17,7,,0.00,6,Rain-Thunderstorm,290
2013-1-12,78,70,63,66,65,63,100,86,56,30.04,29.99,29.92,16,7,5,17,9,,0.00,6,Rain-Thunderstorm,293
2013-1-13,70,67,64,66,65,64,100,95,79,30.04,30.00,29.95,19,6,1,12,8,,0.00,7,Rain,272
2013-1-14,72,68,64,66,65,64,100,91,71,30.04,30.01,29.95,19,6,1,17,8,25,0.00,7,Rain,23
2013-1-15,73,68,64,66,64,63,100,85,69,30.18,30.11,30.04,19,8,4,20,14,30,0.00,6,Rain,32
2013-1-16,77,70,64,66,65,63,100,86,65,30.24,30.18,30.12,19,8,4,15,10,,0.00,6,Rain-Thunderstorm,51
2013-1-17,80,72,64,66,64,61,100,78,47,30.24,30.18,30.12,19,8,6,12,6,,0.00,6,,71
2013-1-18,82,74,65,64,63,59,94,72,48,30.18,30.12,30.01,19,8,6,12,6,,0.00,5,Thunderstorm,333
2013-1-19,81,72,64,66,65,63,100,77,50,30.12,30.05,29.95,19,8,1,18,8,37,0.00,6,Rain-Thunderstorm,17
2013-1-20,77,71,65,68,66,64,94,85,69,30.21,30.02,29.95,19,9,6,18,12,,0.00,6,Rain,16
2013-1-21,79,72,66,68,65,63,100,79,50,30.09,30.02,29.95,19,8,6,20,11,,0.00,6,Rain,286
2013-1-22,79,70,61,64,60,55,94,75,53,30.15,30.09,30.04,19,8,6,12,7,21,0.00,5,Rain,165
2013-1-23,74,67,60,63,60,54,88,74,52,30.18,30.16,30.12,19,8,6,9,7,,0.00,6,,117
2013-1-24,79,70,60,64,62,57,94,77,54,30.21,30.15,30.09,19,9,6,10,5,,0.00,6,,71
2013-1-25,84,75,66,65,57,46,95,55,30,30.18,30.11,30.04,19,8,6,10,4,,0.00,4,,167
2013-1-26,81,69,57,61,56,50,88,59,34,30.21,30.15,30.06,19,9,6,12,8,,0.00,4,,136
2013-1-27,82,70,58,60,56,52,94,63,35,30.21,30.16,30.12,19,8,6,13,7,,0.00,6,,154
2013-1-28,82,70,58,63,58,54,100,67,35,30.27,30.19,30.12,19,9,6,13,6,,0.00,3,,149
2013-1-29,78,69,60,63,58,55,94,70,39,30.21,30.19,30.12,19,9,6,15,8,,0.00,5,,155
2013-1-30,80,70,59,59,57,55,90,63,34,30.21,30.12,30.06,19,11,6,10,8,,0.00,2,,151
2013-1-31,84,69,54,59,57,55,100,65,34,30.12,30.06,29.95,19,14,6,9,4,,0.00,1,,140